Content
SEND FEEDBACK

Daily
Averages
Monthly
Summary
United States of America

UNION CITY, PENNSYLVANIA


Home > North America > United States > Pennsylvania
Elevation: 1460 feet     Latitude: 41 52N     Longitude: 079 49W

WEATHER
 
SELECT A DAY
Number of Records: 229,092;   Date Range: 1/1/95 - 12/17/14
 
SHARE

PRINT THIS DATA

[ ← Previous Day ]
WEATHER ALMANAC - JANUARY 31, 2013
[ Next Day → ]
[ °C ]   °F
Weather ElementAverageHighLow
Temperature25.7 °F37.9 °F (12:51 am)21 °F (10:51 pm)
Dewpoint18.8 °F33.1 °F (12:51 am)10.4 °F (11:08 pm)
Humidity75.6 %93 % (3:34 pm)55 % (7:51 pm)
Barometer29.60 in29.82 in (10:51 pm)29.22 in (12:51 am)
Wind Speed21.7 mph31.1 mph (9:55 am)
Wind Gust49.5 mph (4:05 pm)
Weather ElementAverage
Visibility3 mi
Wind DirectionWSW (256.3 °)

Weather ElementTotal
Precipitation0.10 in
Heating Degree Days35.6 (Base 65)
Averaged from 88 records on January 31, 2013
WEATHER CONDITIONS BREAKOUT
WIND DIRECTION BREAKOUT
WEATHER BY HOUR - JANUARY 31, 2013
[ °C ]   °F
Local TimeTemperatureDewpointHumidityBarometerVisibilityWind DirectionWind SpeedGust SpeedPrecipitationEventsConditions
12:51 AM37.9 °F33.1 °F83 %29.22 in10.0 miWSW (250°)19.6 mph29.9 mph0.00 inRainLight Rain
1:14 AM35.6 °F32.0 °F87 %29.23 in5.0 miWSW (250°)20.7 mph29.9 mph0.01 inSnowLight Snow
1:18 AM35.6 °F32.0 °F87 %29.23 in2.5 miWest (260°)24.2 mph41.4 mph0.01 inSnowLight Snow
1:26 AM35.6 °F32.0 °F87 %29.22 in3.0 miWSW (250°)20.7 mph39.1 mph0.01 inSnowLight Snow
1:51 AM36.0 °F30.9 °F82 %29.23 in9.0 miWSW (240°)23.0 mph34.5 mph0.02 inOvercast
2:51 AM35.1 °F28.0 °F76 %29.29 in10.0 miWSW (250°)25.3 mph41.4 mph0.00 inOvercast
3:02 AM33.8 °F24.8 °F70 %29.27 in10.0 miWSW (250°)25.3 mph43.7 mphOvercast
3:51 AM33.1 °F24.1 °F70 %29.32 in10.0 miWSW (250°)25.3 mph38.0 mphOvercast
4:51 AM30.9 °F19.9 °F64 %29.37 in10.0 miWest (260°)28.8 mph39.1 mphOvercast
5:51 AM30.9 °F19.0 °F61 %29.39 in10.0 miWest (260°)24.2 mph46.0 mphOvercast
6:42 AM30.2 °F21.2 °F69 %29.42 in7.0 miWest (260°)20.7 mph33.4 mph0.00 inSnowLight Snow
6:51 AM30.0 °F21.9 °F72 %29.44 in3.0 miWest (260°)24.2 mph35.7 mph0.00 inSnowLight Snow
7:14 AM28.4 °F24.8 °F86 %29.44 in2.0 miWest (260°)18.4 mph33.4 mph0.00 inSnowLight Snow
7:22 AM28.4 °F24.8 °F86 %29.45 in1.0 miWest (260°)20.7 mph36.8 mph0.00 inSnowLight Snow
7:31 AM28.4 °F21.2 °F74 %29.46 in3.0 miWSW (250°)24.2 mph44.9 mph0.00 inSnowLight Snow
7:51 AM28.9 °F19.0 °F67 %29.48 in10.0 miWest (260°)26.5 mph40.3 mph0.00 inOvercast
8:21 AM28.4 °F19.4 °F69 %29.49 in1.8 miWest (260°)25.3 mph47.2 mph0.00 inSnowLight Snow
8:30 AM28.4 °F19.4 °F69 %29.50 in2.5 miWest (260°)24.2 mph41.4 mphSnowLight Snow
8:38 AM26.6 °F21.2 °F80 %29.50 in1.0 miWest (270°)19.6 mph43.7 mph0.00 inSnowLight Snow
8:51 AM28.0 °F19.9 °F72 %29.52 in1.0 miWest (260°)25.3 mph43.7 mph0.00 inSnowLight Snow
8:53 AM28.4 °F19.4 °F69 %29.51 in3.0 miWest (260°)23.0 mph43.7 mph0.00 inSnowLight Snow
8:59 AM28.4 °F19.4 °F69 %29.52 in1.8 miWSW (250°)23.0 mph39.1 mph0.00 inSnowLight Snow
9:06 AM26.6 °F19.4 °F74 %29.52 in1.0 miWSW (250°)23.0 mph38.0 mph0.00 inSnowLight Snow
9:23 AM26.6 °F17.6 °F69 %29.53 in3.0 miWSW (250°)20.7 mph42.6 mph0.00 inSnowLight Snow
9:35 AM26.6 °F17.6 °F69 %29.54 in8.0 miWest (260°)24.2 mph46.0 mph0.00 inOvercast
9:51 AM27.0 °F18.0 °F69 %29.56 in10.0 miWest (260°)20.7 mph36.8 mph0.00 inOvercast
9:55 AM26.6 °F19.4 °F74 %29.55 in1.2 miWest (260°)31.1 mph44.9 mph0.00 inSnowLight Snow
10:03 AM26.6 °F17.6 °F69 %29.55 in0.8 miWSW (250°)18.4 mph44.9 mph0.00 inSnowLight Snow
10:06 AM26.6 °F17.6 °F69 %29.55 in3.0 miWSW (250°)26.5 mph41.4 mph0.00 inSnowLight Snow
10:14 AM26.6 °F17.6 °F69 %29.56 in2.0 miWSW (250°)28.8 mph44.9 mph0.00 inSnowLight Snow
10:30 AM26.6 °F17.6 °F69 %29.57 in9.0 miWest (260°)26.5 mph43.7 mph0.00 inOvercast
10:41 AM26.6 °F19.4 °F74 %29.58 in1.8 miWest (260°)20.7 mph32.2 mph0.00 inSnowLight Snow
10:47 AM24.8 °F19.4 °F80 %29.58 in0.5 miWest (260°)23.0 mph35.7 mph0.00 inSnowSnow
10:51 AM26.1 °F19.0 °F75 %29.60 in0.5 miWest (260°)27.6 mph39.1 mph0.00 inSnowSnow
10:59 AM24.8 °F21.2 °F86 %29.58 in0.2 miWSW (250°)20.7 mph39.1 mph0.00 inFog-SnowSnow
11:34 AM24.8 °F19.4 °F80 %29.59 in0.5 miWest (260°)27.6 mph46.0 mph0.01 inSnowSnow
11:39 AM26.6 °F17.6 °F69 %29.59 in0.8 miWSW (250°)16.1 mph46.0 mph0.01 inSnowLight Snow
11:51 AM23.0 °F19.9 °F88 %29.62 in0.2 miWest (260°)16.1 mph33.4 mph0.01 inFog-SnowSnow
11:59 AM26.6 °F19.4 °F74 %29.60 in0.8 miWest (260°)20.7 mph32.2 mph0.00 inSnowLight Snow
12:02 PM26.6 °F19.4 °F74 %29.59 in2.0 miWSW (250°)19.6 mph32.2 mph0.00 inSnowLight Snow
12:16 PM24.8 °F19.4 °F80 %29.60 in1.0 miWSW (250°)21.9 mph36.8 mph0.00 inSnowLight Snow
12:20 PM24.8 °F19.4 °F80 %29.60 in0.8 miWSW (250°)21.9 mph35.7 mph0.00 inSnowLight Snow
12:22 PM24.8 °F19.4 °F80 %29.60 in1.0 miWSW (250°)27.6 mph43.7 mph0.00 inSnowLight Snow
12:27 PM24.8 °F19.4 °F80 %29.61 in0.5 miWest (260°)25.3 mph43.7 mph0.00 inSnowSnow
12:39 PM24.8 °F21.2 °F86 %29.61 in0.5 miWSW (240°)19.6 mph35.7 mph0.00 inSnowSnow
12:51 PM25.0 °F18.0 °F75 %29.63 in0.8 miWSW (240°)16.1 mph26.5 mph0.01 inSnowLight Snow
12:59 PM24.8 °F17.6 °F74 %29.61 in1.8 miWSW (250°)20.7 mph32.2 mph0.00 inSnowLight Snow
1:48 PM24.8 °F17.6 °F74 %29.62 in0.5 miWSW (240°)20.7 mph40.3 mph0.00 inSnowSnow
1:51 PM24.1 °F17.1 °F75 %29.65 in0.5 miWSW (240°)20.7 mph40.3 mph0.00 inSnowSnow
1:55 PM24.8 °F15.8 °F69 %29.63 in1.0 miWSW (240°)19.6 mph40.3 mph0.00 inSnowLight Snow
2:05 PM24.8 °F17.6 °F74 %29.63 in0.5 miWSW (250°)21.9 mph35.7 mph0.00 inSnowSnow
2:28 PM24.8 °F17.6 °F74 %29.64 in1.0 miWest (260°)23.0 mph39.1 mph0.00 inSnowLight Snow
2:35 PM24.8 °F17.6 °F74 %29.64 in0.5 miWest (260°)25.3 mph39.1 mph0.00 inSnowSnow
2:45 PM24.8 °F17.6 °F74 %29.65 in1.0 miWSW (240°)18.4 mph35.7 mph0.00 inSnowLight Snow
2:46 PM24.1 °F17.1 °F75 %29.67 in1.2 miWSW (250°)18.4 mph35.7 mph0.00 inSnowLight Snow
3:21 PM23.0 °F17.6 °F80 %29.67 in0.5 miWSW (240°)18.4 mph31.1 mph0.00 inSnowSnow
3:34 PM21.2 °F19.4 °F93 %29.68 in0.2 miWSW (250°)20.7 mph33.4 mph0.00 inFog-SnowSnow
3:51 PM21.9 °F18.0 °F85 %29.71 in0.5 miWest (260°)21.9 mph38.0 mph0.00 inFog-SnowLight Snow
4:05 PM21.2 °F19.4 °F93 %29.69 in0.2 miWest (260°)18.4 mph49.5 mph0.00 inFog-SnowSnow
4:32 PM21.2 °F17.6 °F86 %29.70 in0.2 miWest (260°)23.0 mph38.0 mph0.00 inFog-SnowSnow
4:51 PM21.9 °F18.0 °F85 %29.73 in0.2 miWest (260°)26.5 mph34.5 mph0.01 inFog-SnowSnow
4:55 PM21.2 °F17.6 °F86 %29.70 in0.8 miWest (260°)21.9 mph34.5 mph0.00 inSnowLight Snow
4:59 PM23.0 °F15.8 °F74 %29.70 in0.2 miWest (260°)25.3 mph34.5 mph0.00 inSnowHeavy Snow
5:09 PM21.2 °F17.6 °F86 %29.71 in0.2 miWSW (250°)21.9 mph42.6 mph0.00 inFog-SnowSnow
5:20 PM21.2 °F15.8 °F80 %29.71 in0.5 miWest (270°)20.7 mph38.0 mph0.00 inSnowSnow
5:33 PM23.0 °F15.8 °F74 %29.71 in1.0 miWest (260°)17.3 mph32.2 mph0.00 inSnowLight Snow
5:42 PM23.0 °F17.6 °F80 %29.71 in1.2 miWest (270°)21.9 mph33.4 mph0.00 inSnowLight Snow
5:51 PM23.0 °F15.1 °F72 %29.75 in1.5 miWest (260°)24.2 mph33.4 mph0.00 inSnowLight Snow
6:07 PM21.2 °F17.6 °F86 %29.72 in0.8 miWest (270°)19.6 mph36.8 mph0.00 inSnowLight Snow
6:10 PM21.2 °F17.6 °F86 %29.72 in0.5 miWest (270°)21.9 mph36.8 mph0.00 inFog-SnowLight Snow
6:20 PM23.0 °F17.6 °F80 %29.72 in1.0 miWest (260°)19.6 mph39.1 mph0.00 inSnowLight Snow
6:32 PM24.8 °F14.0 °F64 %29.72 in3.0 miWest (260°)19.6 mph33.4 mph0.00 inOvercast
6:39 PM24.8 °F14.0 °F64 %29.72 in8.0 miWest (260°)20.7 mph36.8 mph0.00 inOvercast
6:51 PM24.1 °F16.0 °F71 %29.76 in9.0 miWest (260°)23.0 mph32.2 mph0.00 inOvercast
7:19 PM24.8 °F15.8 °F69 %29.73 in2.0 miWest (270°)21.9 mph36.8 mph0.00 inOvercast
7:28 PM24.8 °F14.0 °F64 %29.73 in8.0 miWest (260°)19.6 mph26.5 mph0.00 inOvercast
7:51 PM25.0 °F10.9 °F55 %29.77 in4.0 miWest (260°)23.0 mph33.4 mph0.00 inHaze
8:51 PM24.1 °F10.9 °F57 %29.78 in7.0 miWest (260°)19.6 mph33.4 mph0.00 inOvercast
9:51 PM23.0 °F12.0 °F63 %29.81 in10.0 miWest (260°)19.6 mph32.2 mph0.00 inOvercast
10:18 PM21.2 °F15.8 °F80 %29.78 in1.8 miWSW (250°)16.1 mph31.1 mph0.00 inSnowLight Snow
10:26 PM21.2 °F15.8 °F80 %29.78 in3.0 miWSW (250°)13.8 mph21.9 mph0.00 inSnowLight Snow
10:33 PM21.2 °F12.2 °F68 %29.79 in1.8 miWest (260°)18.4 mph34.5 mph0.00 inSnowLight Snow
10:40 PM21.2 °F15.8 °F80 %29.78 in0.8 miWSW (250°)18.4 mph28.8 mph0.00 inSnowLight Snow
10:51 PM21.0 °F16.0 °F81 %29.82 in1.8 miWSW (250°)15.0 mph25.3 mph0.00 inSnowLight Snow
10:53 PM21.2 °F15.8 °F80 %29.78 in3.0 miWSW (250°)13.8 mph25.3 mph0.00 inSnowLight Snow
11:08 PM21.2 °F10.4 °F63 %29.78 in10.0 miWest (260°)16.1 mph27.6 mph0.00 inOvercast
11:33 PM21.2 °F15.8 °F80 %29.78 in6.0 miWNW (290°)18.4 mph26.5 mph0.00 inSnowLight Snow
11:51 PM21.0 °F16.0 °F81 %29.82 in1.2 miWNW (290°)20.7 mph32.2 mph0.00 inSnowLight Snow
Hourly data recorded from KERI, located miles away from Union City, Pennsylvania







STORIES FROM OUR PARTNERS